Tracking 19854 objects as of 23-Sep-2019
HD Live streaming from Space Station
objects crossing your sky now

ARIANE 5 R/B

Track ARIANE 5 R/B now!


NORAD ID: 33276
Int'l Code: 2008-038C
Perigee: 282.7 km
Apogee: 33,666.1 km
Inclination: 1.9 °
Period: 591.6 minutes
Semi major axis: 23345 km
RCS: 23.7749 m2 (large)
Launch date: August 14, 2008
Source: France (FR)
Launch site: FRENCH GUIANA (FRGUI)

Note: This is a ROCKET BODY
aabbcc
Your satellite tracking list
Your tracking list is empty




NASA's NSSDC Master Catalog

Two Line Element Set (TLE):
1 33276U 08038C   19265.01262416  .00000786  00000-0  30789-3 0  9996
2 33276   1.8712 159.1276 7149904  62.6929 351.2910  2.43389520 95798
Source of the keplerian elements: AFSPC